GFSGL_sfc_dewp_162.txt.gz
Dewpoint
19 20 21 21 21 22 22 23 24 25 25 27 26 26 26 25 26 26 26 28 28 28 28 27 27 28 28 28 29 27 27 27 25 24 26 27 26 26 26 26 26 27 26
19 19 20 20 21 21 21 22 24 24 25 26 25 25 25 24 24 25 25 26 25 25 26 25 25 24 25 24 25 24 24 25 22 21 22 23 23 24 24 22 23 22 23
19 19 19 19 20 21 21 22 23 23 23 24 24 24 24 24 23 24 24 24 24 24 24 23 21 22 23 22 23 21 22 20 22 22 21 22 22 22 20 21 20 21 21
19 18 19 19 20 20 21 22 23 22 22 23 23 24 24 24 22 22 22 22 22 23 22 23 20 20 20 20 20 21 20 20 20 19 19 19 19 19 19 17 17 19 19
18 18 18 19 20 20 21 22 23 21 21 21 21 21 23 23 21 20 20 19 20 20 19 19 18 20 21 21 20 20 19 18 17 17 17 16 15 15 15 16 16 17 17
16 17 18 19 19 20 20 21 21 20 20 20 20 21 22 22 25 23 19 17 16 17 15 16 15 17 20 21 21 19 18 17 16 16 14 13 13 14 16 15 15 13 12
17 17 18 19 19 20 20 20 20 20 21 21 20 20 20 21 24 22 20 17 14 16 15 14 13 14 18 17 17 16 16 17 18 13 11 12 13 15 17 14 14 12 11
17 18 19 19 21 22 22 22 22 21 20 20 19 17 19 20 21 21 17 16 13 12 14 12 12 12 14 14 10 9 9 9 8 7 8 9 13 14 13 14 12 10 9
18 19 21 21 21 21 21 22 22 22 20 19 18 17 17 17 19 19 14 14 11 8 10 8 11 10 14 14 8 9 7 8 5 10 10 11 11 11 11 8 5 5 3
18 19 21 21 21 21 22 22 23 22 20 18 16 17 17 15 17 17 13 13 12 7 9 5 13 12 13 13 8 8 3 5 1 2 1 1 3 2 7 2 4 2 2
19 19 20 21 21 21 21 21 21 20 19 18 14 14 14 14 13 16 16 11 11 8 6 6 8 12 11 12 10 8 6 3 -0 -3 -3 -3 -1 -1 -0 1 1 1 0
18 18 19 19 20 21 20 19 20 18 16 15 12 10 11 12 14 14 14 12 13 6 4 5 7 9 9 8 7 9 6 0 -5 -8 -9 -8 -6 -5 -3 -2 -1 -2 -1
16 16 17 18 19 19 18 16 15 15 13 12 9 7 8 9 11 11 12 11 11 5 2 5 6 5 5 -2 5 5 -2 -8 -10 -13 -11 -10 -8 -6 -4 -4 -3 -2 -2
14 15 15 15 16 17 15 14 12 11 10 9 8 6 6 7 8 11 9 8 11 -1 -3 -4 0 -0 0 -2 -8 -8 -9 -11 -12 -13 -12 -11 -9 -9 -9 -8 -8 -8 -8
14 14 14 14 13 13 12 11 9 10 9 6 4 4 -2 -2 4 10 8 4 -2 5 -17 -19 -17 -13 -13 -13 -14 -14 -12 -13 -15 -14 -15 -14 -13 -12 -12 -10 -9 -10 -12
13 12 12 10 9 7 8 7 10 11 10 11 12 5 2 7 8 8 9 7 7 3 -22 -29 -26 -24 -21 -19 -19 -17 -17 -16 -17 -16 -17 -17 -16 -16 -14 -13 -10 -12 -12
12 10 8 6 5 3 2 1 -2 -1 4 6 5 5 6 6 7 7 7 5 3 -5 -29 -33 -31 -30 -28 -22 -23 -22 -22 -18 -22 -20 -19 -20 -18 -18 -17 -16 -13 -12 -13
7 6 4 1 -3 -8 -10 -13 -14 -16 -16 -15 -2 2 2 5 5 4 4 -5 -23 -21 -35 -33 -32 -33 -31 -30 -28 -28 -24 -22 -21 -22 -22 -23 -22 -21 -19 -17 -15 -14 -14
-0 -4 -8 -12 -14 -13 -15 -17 -19 -19 -20 -21 -22 -8 -9 1 4 1 1 -26 -28 -32 -34 -35 -35 -35 -33 -34 -31 -32 -34 -29 -26 -30 -30 -29 -25 -23 -21 -19 -16 -14 -14
-8 -9 -13 -15 -19 -19 -18 -17 -20 -21 -22 -23 -23 -22 -24 -19 -21 -26 -31 -33 -35 -34 -34 -35 -32 -37 -37 -36 -34 -35 -34 -34 -32 -35 -33 -30 -27 -26 -21 -20 -17 -15 -14
-13 -14 -15 -21 -18 -20 -21 -20 -21 -23 -22 -25 -23 -20 -2 -17 -22 -28 -30 -32 -30 -30 -29 -32 -32 -35 -36 -35 -37 -37 -38 -30 -32 -34 -33 -32 -31 -26 -22 -20 -18 -15 -14
-15 -17 -20 -18 -24 -21 -22 -22 -23 -22 -23 -23 -22 -21 1 -20 -26 -26 -28 -26 -25 -26 -27 -29 -29 -31 -30 -32 -31 -33 -31 -30 -29 -35 -35 -31 -30 -26 -24 -21 -19 -16 -15
-17 -20 -23 -25 -23 -21 -23 -27 -25 -24 -22 -22 -21 -20 -23 -23 -23 -23 -21 -22 -26 -27 -29 -34 -30 -29 -29 -31 -31 -29 -29 -27 -27 -34 -32 -30 -27 -24 -25 -22 -18 -17 -14
-17 -16 -17 -20 -22 -22 -21 -21 -22 -20 -20 -19 -22 -21 -19 -20 -21 -21 -20 -22 -26 -28 -30 -30 -29 -28 -28 -29 -31 -31 -30 -28 -30 -28 -30 -28 -23 -22 -22 -20 -17 -17 -16
-18 -17 -16 -16 -18 -17 -19 -18 -18 -19 -19 -18 -17 -18 -18 -19 -20 -21 -22 -23 -24 -26 -25 -25 -26 -27 -26 -26 -27 -28 -27 -18 -22 -21 -26 -23 -21 -23 -21 -17 -17 -17 -17
-16 -16 -16 -17 -18 -19 -18 -17 -16 -16 -16 -16 -16 -16 -17 -18 -18 -19 -20 -23 -24 -23 -24 -25 -26 -26 -26 -25 -24 -19 -16 -11 -12 -12 -13 -15 -16 -18 -18 -20 -19 -17 -15

GFSGL_sfc_dewp_165.txt.gz
Dewpoint
20 20 21 21 22 23 23 24 24 26 27 26 26 26 26 25 26 26 27 27 27 27 26 26 26 26 24 24 25 25 25 25 22 22 24 24 23 23 22 22 22 22 22
19 20 20 20 21 21 22 23 24 25 26 26 26 25 25 24 25 26 25 25 25 25 24 22 22 22 22 23 24 22 22 23 21 18 21 21 21 21 20 19 19 18 20
19 19 19 20 21 21 22 23 23 24 24 25 25 25 24 24 23 23 23 24 24 24 22 20 21 21 21 21 22 21 21 19 21 20 19 20 19 19 17 17 17 18 17
19 19 19 20 21 21 22 22 23 23 23 23 24 25 24 22 21 21 21 22 22 21 22 19 19 20 20 21 20 20 18 18 19 18 17 16 16 16 16 15 14 16 15
18 18 19 20 20 21 22 22 22 22 21 22 22 23 24 23 21 20 19 20 20 18 18 17 17 20 21 21 19 17 17 17 17 16 14 13 13 12 12 14 13 13 13
17 18 18 19 20 21 21 21 21 21 21 21 22 23 23 23 25 23 20 17 17 15 14 15 14 16 18 19 19 18 17 13 13 10 11 9 9 11 13 13 11 10 7
17 18 19 19 19 21 21 20 20 20 21 21 21 22 23 23 24 21 20 13 15 15 12 12 11 10 15 12 12 12 11 14 11 5 4 4 7 9 11 9 10 8 7
17 18 19 20 20 22 23 23 21 21 20 21 20 20 20 19 22 19 17 13 10 13 9 11 11 10 13 12 7 7 4 6 2 4 4 5 7 7 6 6 5 4 3
18 19 20 21 21 22 22 22 22 21 21 19 19 19 18 19 22 19 14 13 6 10 6 9 11 10 13 14 7 7 6 6 2 7 8 9 10 9 9 3 -1 -2 -4
18 20 21 21 21 21 21 22 24 23 22 21 18 18 18 17 17 18 12 14 10 9 5 6 14 11 12 13 7 6 2 2 0 -2 -1 -1 1 0 5 -1 1 -3 -3
19 20 19 20 21 21 22 22 22 22 20 17 16 16 16 15 14 15 15 12 9 7 6 6 8 11 10 10 9 7 5 -2 -3 -6 -6 -5 -4 -3 -2 -1 -2 -2 -4
18 19 20 20 21 21 21 21 20 20 17 15 13 12 12 13 14 13 13 14 9 5 4 6 7 8 7 8 7 7 4 -3 -8 -11 -11 -10 -8 -7 -5 -5 -5 -4 -4
18 16 17 18 20 21 19 19 18 17 15 12 9 8 9 10 12 11 11 11 10 3 3 5 5 5 4 -3 5 4 -4 -10 -12 -15 -14 -12 -10 -8 -6 -7 -7 -4 -4
15 16 16 16 17 18 18 16 16 13 10 11 8 6 8 9 10 12 9 8 8 -3 -4 -3 1 -1 0 -4 -10 -9 -11 -12 -14 -16 -15 -13 -11 -11 -12 -10 -11 -9 -11
15 14 15 15 15 14 14 12 11 11 10 8 5 4 -2 -3 3 11 7 2 1 -3 -19 -21 -19 -15 -15 -15 -16 -16 -14 -15 -17 -17 -17 -17 -16 -15 -15 -13 -13 -12 -14
13 14 13 13 12 10 8 8 10 11 12 11 10 4 1 9 8 7 10 5 7 3 -25 -29 -26 -26 -22 -22 -23 -22 -21 -19 -19 -19 -20 -20 -20 -19 -18 -16 -14 -14 -15
14 12 11 9 7 6 6 6 2 2 10 10 10 10 7 7 6 6 7 4 4 -5 -29 -34 -30 -31 -29 -26 -27 -27 -25 -21 -27 -25 -24 -24 -22 -23 -21 -20 -17 -16 -15
11 9 8 5 2 -1 -2 -5 -6 -6 -8 -11 0 2 4 6 5 4 6 -5 -23 -22 -34 -33 -32 -33 -32 -31 -31 -31 -29 -26 -28 -26 -28 -31 -30 -29 -25 -22 -20 -19 -17
7 1 -3 -7 -9 -9 -12 -14 -16 -19 -20 -21 -22 -6 -10 2 4 3 3 -26 -28 -31 -35 -35 -36 -35 -34 -35 -34 -36 -37 -33 -32 -35 -36 -38 -32 -35 -27 -24 -21 -19 -17
-5 -5 -8 -11 -15 -16 -14 -15 -19 -19 -22 -23 -24 -21 -24 -20 -19 -24 -31 -33 -34 -33 -34 -34 -34 -38 -37 -37 -37 -39 -37 -37 -35 -36 -34 -34 -32 -36 -26 -25 -23 -21 -18
-7 -10 -11 -16 -14 -15 -15 -14 -15 -18 -18 -20 -19 -20 -3 -19 -21 -25 -28 -32 -29 -30 -30 -32 -33 -35 -36 -37 -42 -41 -41 -32 -34 -34 -34 -33 -37 -34 -30 -25 -23 -21 -19
-9 -12 -15 -15 -19 -18 -18 -17 -18 -18 -19 -21 -22 -22 2 -20 -24 -25 -27 -25 -26 -26 -27 -29 -30 -30 -29 -31 -32 -35 -34 -31 -31 -34 -34 -32 -34 -32 -30 -28 -24 -21 -18
-12 -15 -18 -26 -19 -19 -21 -23 -22 -21 -21 -21 -23 -21 -23 -24 -23 -22 -21 -22 -25 -26 -29 -33 -30 -28 -30 -31 -32 -30 -29 -27 -26 -32 -28 -27 -29 -28 -30 -28 -23 -22 -18
-15 -15 -14 -18 -20 -18 -17 -19 -22 -19 -20 -21 -24 -24 -20 -21 -21 -20 -20 -22 -25 -26 -29 -29 -28 -27 -28 -29 -32 -33 -32 -28 -30 -29 -29 -28 -26 -24 -27 -29 -22 -21 -17
-15 -16 -16 -16 -17 -16 -18 -19 -19 -20 -20 -19 -19 -20 -19 -19 -20 -20 -21 -22 -23 -24 -24 -25 -25 -25 -25 -26 -28 -30 -30 -18 -20 -23 -27 -28 -25 -23 -23 -23 -20 -16 -17
-15 -15 -14 -17 -17 -18 -18 -17 -17 -17 -17 -17 -17 -17 -17 -18 -17 -18 -20 -22 -22 -22 -23 -23 -23 -25 -26 -25 -27 -23 -19 -12 -14 -16 -20 -20 -18 -19 -24 -23 -18 -16 -15

GFSGL_sfc_dewp_168.txt.gz
Dewpoint
20 21 21 22 22 23 23 24 25 26 25 26 26 25 25 26 27 26 26 26 26 25 24 24 23 23 23 24 25 23 23 23 20 21 23 23 22 21 20 18 20 19 19
20 20 20 21 21 22 22 23 25 25 25 25 25 25 24 25 25 25 24 25 24 22 21 22 22 20 21 22 22 21 21 20 19 18 20 20 19 18 18 17 15 14 17
19 20 20 20 20 21 22 23 24 24 24 25 25 23 23 23 23 23 24 24 23 21 20 20 21 21 21 22 20 19 19 18 20 17 18 18 16 17 14 15 14 15 12
19 19 19 20 20 21 22 22 23 23 23 23 24 24 22 22 21 21 22 22 20 22 19 19 20 20 20 21 18 17 17 17 17 16 14 13 14 12 14 12 11 12 12
18 18 19 21 21 21 22 22 22 22 22 22 23 24 23 23 20 20 19 20 19 18 18 16 16 18 20 20 16 16 14 14 13 8 9 9 8 7 8 10 9 9 7
18 18 19 20 20 21 21 21 21 21 22 22 23 24 24 22 24 23 19 17 16 14 14 14 12 15 15 16 15 15 13 10 5 7 6 3 3 7 9 8 7 4 0
18 18 19 20 20 21 21 20 20 20 22 22 22 22 22 22 22 21 17 14 15 12 11 11 9 10 15 10 10 10 10 12 10 3 2 3 6 7 8 7 5 3 1
18 18 19 20 20 21 20 21 21 21 21 21 21 20 21 21 21 20 18 11 14 8 10 12 10 10 13 11 6 5 4 3 1 2 3 5 5 5 4 3 1 1 -0
18 18 19 20 21 21 22 21 21 21 21 21 20 20 20 20 21 17 15 9 9 6 6 10 10 10 13 15 7 7 5 4 1 6 7 8 8 9 8 1 -4 -5 -6
18 19 20 21 21 21 21 22 22 21 22 22 21 19 19 18 18 17 14 13 11 8 6 6 15 11 12 13 7 6 2 0 -1 -3 -3 -3 -1 -1 4 -2 -2 -6 -6
18 19 19 20 20 20 21 22 22 22 20 19 17 17 17 16 16 16 15 12 9 8 7 8 9 10 9 10 9 7 4 -2 -4 -7 -7 -6 -5 -5 -4 -3 -4 -4 -6
17 17 17 18 21 21 21 21 21 18 16 15 13 12 13 14 14 14 15 12 9 5 7 7 8 8 6 8 7 6 3 -3 -9 -12 -13 -11 -10 -9 -7 -6 -7 -7 -6
15 15 15 18 20 21 20 19 19 17 14 13 11 9 9 12 13 13 12 13 9 5 5 7 6 5 3 -3 4 2 -5 -10 -13 -21 -16 -13 -12 -10 -9 -9 -9 -8 -7
14 15 17 18 18 19 20 19 16 15 13 11 7 5 5 7 9 10 10 6 9 -1 -2 -2 2 0 0 -5 -10 -10 -12 -13 -15 -18 -17 -15 -14 -13 -14 -12 -13 -12 -14
15 16 17 17 17 16 16 16 15 11 11 5 0 3 -1 -4 2 10 5 -1 -10 -4 -19 -20 -19 -16 -16 -16 -19 -18 -15 -16 -18 -19 -20 -19 -17 -17 -17 -15 -15 -16 -20
15 16 16 16 14 13 12 12 16 13 14 13 12 5 0 9 11 13 16 11 9 5 -25 -28 -26 -26 -23 -23 -25 -24 -23 -21 -22 -22 -26 -23 -22 -22 -21 -19 -17 -20 -18
15 15 14 13 12 10 9 7 6 8 15 13 12 10 9 10 9 9 11 7 6 -2 -29 -33 -30 -29 -28 -26 -27 -28 -26 -25 -30 -28 -29 -30 -27 -27 -25 -24 -20 -20 -19
16 15 13 11 10 7 5 2 4 5 1 -9 5 6 10 8 8 8 9 3 -17 -22 -34 -33 -31 -31 -31 -30 -31 -31 -31 -31 -30 -31 -32 -36 -38 -36 -32 -26 -23 -24 -21
13 12 10 7 3 2 -3 -6 -6 -9 -9 -17 -19 -3 -8 6 7 7 6 -23 -26 -30 -34 -35 -33 -34 -33 -35 -35 -37 -38 -37 -36 -38 -39 -39 -39 -39 -32 -30 -25 -22 -21
11 7 4 -1 -7 -9 -8 -9 -14 -14 -16 -17 -18 -16 -24 -18 -17 -19 -30 -31 -32 -30 -32 -29 -30 -34 -35 -36 -38 -40 -41 -40 -39 -40 -38 -39 -38 -38 -30 -30 -27 -24 -22
4 -1 -4 -10 -9 -9 -10 -9 -12 -15 -16 -18 -16 -20 -2 -17 -17 -18 -21 -28 -24 -26 -26 -28 -29 -32 -36 -39 -42 -42 -43 -35 -39 -40 -40 -39 -40 -39 -37 -29 -28 -26 -23
-2 -7 -10 -10 -14 -14 -15 -15 -15 -16 -17 -17 -21 -22 6 -10 -16 -19 -21 -21 -22 -24 -25 -26 -28 -29 -29 -32 -32 -35 -36 -34 -36 -38 -38 -37 -38 -39 -37 -32 -28 -25 -23
-7 -11 -15 -21 -18 -18 -19 -21 -20 -18 -18 -19 -20 -18 -21 -21 -19 -18 -18 -19 -23 -24 -27 -30 -28 -28 -30 -31 -31 -29 -29 -28 -29 -35 -35 -34 -34 -34 -36 -33 -29 -25 -22
-9 -10 -12 -18 -18 -18 -17 -19 -19 -18 -18 -19 -21 -20 -18 -19 -20 -19 -20 -21 -24 -25 -28 -27 -27 -26 -28 -29 -32 -33 -32 -31 -37 -33 -33 -32 -30 -30 -34 -33 -27 -24 -20
-11 -12 -12 -15 -16 -16 -17 -18 -17 -18 -18 -17 -18 -19 -19 -19 -20 -20 -20 -21 -22 -23 -23 -24 -24 -24 -24 -25 -27 -30 -31 -19 -23 -28 -33 -34 -30 -29 -27 -26 -24 -20 -18
-13 -13 -14 -16 -17 -17 -16 -16 -16 -16 -17 -17 -17 -17 -17 -18 -17 -18 -19 -21 -21 -21 -22 -22 -22 -23 -24 -24 -25 -22 -21 -16 -20 -20 -25 -27 -26 -23 -26 -27 -24 -18 -16

GFSGL_sfc_dewp_171.txt.gz
Dewpoint
21 21 22 22 23 23 24 25 27 26 25 25 25 26 26 26 26 25 25 25 22 23 23 22 21 22 22 22 22 22 20 20 18 19 20 21 17 16 13 15 14 12 12
21 21 21 22 22 22 23 25 26 25 25 25 24 24 24 24 25 24 24 22 20 21 21 21 21 20 22 21 20 19 18 19 18 16 17 17 14 15 10 12 10 7 9
20 21 20 21 21 21 23 24 24 25 24 24 23 22 22 23 23 23 23 23 21 20 20 20 21 20 21 19 18 17 17 16 17 17 13 13 13 11 10 11 9 10 6
20 20 20 20 21 22 23 24 24 24 24 23 22 22 22 21 21 22 21 21 21 19 20 19 18 19 19 17 16 16 13 14 13 9 8 7 8 8 11 9 10 11 10
19 19 20 21 21 22 23 23 23 23 23 24 23 23 23 21 19 20 20 19 18 17 16 15 16 18 18 17 14 11 12 9 7 7 5 4 5 6 6 7 7 7 7
19 19 20 21 21 22 22 22 22 22 23 24 25 24 22 22 24 22 19 16 14 13 13 11 11 15 14 15 15 15 13 7 5 3 3 1 3 6 7 7 5 3 1
19 19 20 20 21 22 21 21 21 22 22 23 23 22 22 22 23 19 19 15 12 11 11 9 9 12 14 7 10 9 10 10 11 1 1 3 5 5 6 6 3 1 -0
19 19 20 21 21 22 21 21 21 22 22 21 21 22 22 20 21 20 16 13 9 11 12 10 10 11 14 7 6 3 4 -3 3 1 3 4 4 4 3 2 0 1 -0
19 19 20 20 21 21 20 21 21 21 22 21 20 21 21 20 19 19 12 11 6 7 10 12 10 10 14 13 7 5 5 0 2 5 7 7 7 8 7 -1 -2 -2 -4
19 19 20 20 21 21 21 21 22 22 22 22 20 20 20 20 19 17 15 12 11 7 7 9 15 11 12 13 7 5 3 -2 0 -4 -3 -3 -2 -2 3 -4 -3 -4 -5
19 19 20 21 21 21 21 21 21 22 22 20 19 18 18 17 17 17 16 11 10 9 8 8 10 11 11 11 10 6 4 -4 -4 -7 -7 -6 -5 -5 -5 -4 -4 -5 -5
18 18 18 19 21 21 21 22 22 21 18 16 16 15 14 15 17 16 15 11 8 8 8 7 8 9 8 9 7 5 3 -5 -8 -10 -10 -9 -9 -8 -7 -7 -7 -7 -7
15 15 16 18 20 21 21 21 19 19 16 14 13 12 11 12 15 14 16 12 9 7 7 8 8 7 2 1 5 2 -7 -10 -11 -13 -12 -12 -11 -10 -9 -9 -8 -7 -7
14 15 16 18 20 21 22 20 19 17 16 14 12 9 9 10 10 10 10 11 11 4 4 3 4 2 1 -6 -10 -9 -11 -12 -13 -14 -14 -14 -13 -12 -12 -11 -12 -11 -11
14 15 18 18 19 19 20 19 18 18 17 13 10 8 6 7 9 10 6 2 -3 -3 -13 -12 -12 -11 -12 -13 -14 -14 -13 -14 -15 -15 -16 -16 -15 -14 -14 -13 -13 -13 -14
14 15 17 17 17 17 17 18 21 20 21 18 15 9 7 10 14 15 13 11 10 5 -14 -14 -14 -15 -14 -14 -15 -15 -15 -16 -16 -17 -17 -18 -17 -18 -17 -15 -15 -15 -15
16 16 17 16 16 15 15 15 14 18 18 16 16 13 14 14 13 14 16 10 11 3 -13 -17 -15 -16 -15 -15 -16 -17 -16 -16 -22 -19 -19 -20 -20 -20 -20 -18 -17 -17 -16
17 17 16 16 15 14 13 13 13 11 10 10 11 13 13 13 12 12 12 8 1 -12 -18 -17 -16 -18 -17 -17 -17 -18 -18 -19 -20 -19 -20 -22 -25 -24 -21 -19 -19 -20 -18
17 16 16 15 14 13 12 9 5 5 5 -1 -5 5 -4 12 11 11 11 -3 -6 -12 -18 -20 -19 -19 -19 -19 -19 -21 -22 -21 -22 -23 -23 -25 -25 -25 -22 -21 -20 -21 -20
15 15 13 11 9 7 5 2 -2 -0 -2 -4 -4 -2 -9 -4 -2 -3 -11 -11 -13 -14 -17 -18 -19 -20 -20 -21 -21 -23 -23 -24 -24 -24 -23 -24 -24 -26 -22 -23 -21 -21 -19
11 10 9 6 6 3 0 -0 -1 -4 -3 -6 -4 -10 1 -5 -4 -6 -9 -15 -13 -14 -15 -18 -19 -20 -22 -22 -24 -25 -25 -21 -24 -25 -25 -24 -26 -25 -24 -24 -23 -21 -21
7 4 4 4 -2 -3 -3 -3 -4 -5 -8 -9 -13 -14 10 -4 -12 -12 -13 -12 -12 -13 -14 -16 -18 -19 -20 -23 -23 -23 -24 -23 -23 -25 -25 -26 -27 -25 -26 -24 -23 -21 -19
1 -2 -5 -7 -7 -10 -11 -11 -10 -10 -12 -13 -14 -14 -13 -9 -8 -10 -11 -11 -13 -14 -17 -21 -19 -20 -22 -24 -22 -20 -20 -20 -20 -23 -23 -24 -24 -23 -25 -23 -22 -22 -19
-2 -3 -5 -10 -12 -11 -11 -14 -15 -15 -14 -15 -16 -16 -14 -14 -13 -12 -12 -13 -16 -17 -20 -21 -21 -20 -20 -22 -23 -24 -24 -22 -25 -25 -26 -25 -24 -24 -24 -24 -22 -20 -20
-4 -5 -7 -11 -11 -12 -13 -14 -15 -15 -15 -14 -16 -16 -15 -15 -16 -16 -16 -16 -17 -17 -18 -20 -20 -19 -20 -21 -22 -24 -26 -17 -19 -27 -29 -28 -26 -26 -26 -24 -21 -19 -17
-6 -6 -7 -10 -12 -13 -13 -14 -15 -15 -15 -14 -14 -15 -14 -15 -14 -13 -14 -15 -16 -16 -16 -16 -18 -19 -19 -19 -20 -19 -19 -17 -20 -20 -23 -25 -25 -23 -22 -21 -20 -19 -15